Weather History for 84691 - November, 2013

Change the Weather History Date:

Tuesday, November 19, 2013

  Actual Average Record
Temperature  
Mean Temperature 66 °F -  
Max Temperature 75 °F 76 °F - ()
Min Temperature 58 °F 62 °F - ()
Cooling Degree Days 2    
Growing Degree Days 16 (Base 50)    
Moisture  
Dew Point 61 °F    
Average Humidity 82    
Maximum Humidity 94    
Minimum Humidity 58    
Precipitation  
Precipitation 0.00 in 0.00 in - ()
Sea Level Pressure  
Sea Level Pressure 29.93 in    
Wind  
Wind Speed 7 mph ()    
Max Wind Speed 18 mph    
Max Gust Speed -    
Visibility 4.4 miles    
Events      
T = Trace of Precipitation, MM = Missing Value Source: Averaged Metar Reports

Daily Weather History Graph

Daily Weather History Graph

Search for Another Location

Airport or City:

Trip Planner

Search our weather history database for the weather conditions in past years. The results will help you decide how hot, cold, wet, or windy it might be!

Date:

Astronomy

Nov. 19, 2013 Rise Set
Actual Time 5:26 AM PET 6:14 PM PET
Civil Twilight 5:03 AM PET 6:36 PM PET
Nautical Twilight 4:37 AM PET 7:03 PM PET
Astronomical Twilight 4:09 AM PET 7:31 PM PET
Moon 8:06 PM PET (11/19) 7:00 AM PET (11/19)
Length of Visible Light 13h 33m
Length of Day
12h 47m
Waning Gibbous, 96% of the Moon is Illuminated
Nov 19
Waning Gibbous
Nov 25
Last Quarter
Dec 2
New
Dec 9
First Quarter
Dec 17
Full

Hourly Weather History & Observations

Time (PET) Temp. Dew Point Humidity Pressure Visibility Wind Dir Wind Speed Gust Speed Precip Events Conditions
12:00 AM 62.6 °F 59.0 °F 88% 29.92 in 5.0 mi SSW 8.1 mph - N/A   Unknown
1:00 AM 63 °F 60 °F 85% 29.89 in 5 mi SSW 6.9 mph - -   Mist
1:00 AM 62.6 °F 59.0 °F 88% 29.89 in 5.0 mi SSW 6.9 mph - N/A   Unknown
2:00 AM 62.6 °F 59.0 °F 88% 29.89 in 5.0 mi ENE 4.6 mph - N/A   Unknown
3:00 AM 60.8 °F 59.0 °F 94% 29.89 in 4.3 mi Variable 1.2 mph - N/A   Unknown
4:00 AM 60 °F 56 °F 84% 29.88 in 4 mi ENE 3.5 mph - -   Mist
4:00 AM 60.8 °F 57.2 °F 88% 29.89 in 4.3 mi ENE 3.5 mph - N/A   Unknown
5:00 AM 59.0 °F 55.4 °F 88% 29.92 in 3.7 mi East 3.5 mph - N/A   Partly Cloudy
6:00 AM 60.8 °F 57.2 °F 88% 29.92 in 3.1 mi Variable 2.3 mph - N/A   Mostly Cloudy
7:00 AM 64 °F 60 °F 82% 29.95 in 3 mi South 3.5 mph - -   Mist
7:00 AM 64.4 °F 60.8 °F 88% 29.95 in 3.1 mi South 3.5 mph - N/A   Overcast
7:12 AM 64.4 °F 60.8 °F 88% 29.95 in 2.2 mi SSW 3.5 mph - N/A   Overcast
8:00 AM 66.2 °F 60.8 °F 83% 29.98 in 2.5 mi WSW 4.6 mph - N/A   Overcast
9:00 AM 66.2 °F 62.6 °F 88% 29.98 in 2.5 mi WSW 4.6 mph - N/A   Overcast
10:00 AM 66.2 °F 60.8 °F 83% 29.98 in 3.1 mi West 5.8 mph - N/A   Overcast
11:00 AM 68.0 °F 62.6 °F 83% 29.98 in 3.7 mi West 8.1 mph - N/A   Mostly Cloudy
12:00 PM 69.8 °F 62.6 °F 78% 29.95 in 5.0 mi West 11.5 mph - N/A   Unknown
1:00 PM - 64 °F %  in 5 mi West 11.5 mph - -  
1:00 PM 69.8 °F 60.8 °F 73% 29.92 in 5.0 mi West 11.5 mph - N/A   Unknown
2:00 PM 71.6 °F 62.6 °F 73% 29.92 in - West 9.2 mph - N/A   Clear
3:00 PM 75.2 °F 62.6 °F 65% 29.92 in - WSW 18.4 mph - N/A   Clear
4:00 PM 75 °F 63 °F 58% 29.89 in 6 mi SSW 16.1 mph - -   Partly Cloudy
4:00 PM 75.2 °F 62.6 °F 65% 29.89 in - SSW 16.1 mph - N/A   Clear
5:00 PM 71.6 °F 64.4 °F 78% 29.92 in - SW 16.1 mph - N/A   Clear
6:00 PM 69.8 °F 60.8 °F 73% 29.92 in 6.2 mi SSW 15.0 mph - N/A   Scattered Clouds
7:00 PM 67 °F 61 °F 77% 29.94 in 6 mi SSW 11.5 mph - -   Partly Cloudy
7:00 PM 68.0 °F 60.8 °F 78% 29.95 in 6.2 mi SSW 11.5 mph - N/A   Scattered Clouds
8:00 PM 66.2 °F 60.8 °F 83% 29.98 in 5.0 mi SSW 10.4 mph - N/A   Unknown
9:00 PM 64.4 °F 60.8 °F 88% 29.98 in 5.0 mi SSW 9.2 mph - N/A   Unknown
10:00 PM 65 °F 61 °F 81% 29.97 in 5 mi SSW 9.2 mph - -   Mist
10:00 PM 64.4 °F 60.8 °F 88% 29.98 in 5.0 mi SSW 9.2 mph - N/A   Unknown
11:00 PM 64.4 °F 60.8 °F 88% 29.98 in 5.0 mi SSW 4.6 mph - N/A   Unknown